(327760) = 2006 US36

Discovered at Kitt Peak on 2006-10-16 by Spacewatch.

Orbit

Orbit type: Main Belt

Note: WebGL enabled browser required.

epoch2023-09-13.0
epoch JD2460200.5
perihelion date2020-03-08.86458
perihelion JD2458917.36458
argument of perihelion (°)276.79330
ascending node (°)224.49920
inclination (°)11.38889
eccentricity0.2393355
perihelion distance (AU)1.9742896
Tisserand w.r.t. Jupiter3.3
ΔV w.r.t. Earth (km/sec)9.5
semimajor axis (AU)2.5954802
mean anomaly (°)302.44734
mean daily motion (°/day)0.23570960
aphelion distance (AU)3.217
period (years)4.18
P-vector [x]-0.76664437
P-vector [y]0.63894409
P-vector [z]0.06329978
Q-vector [x]-0.62697732
Q-vector [y]-0.72372286
Q-vector [z]-0.28831347
absolute magnitude17.31
phase slope0.15
uncertainty0
referenceMPEC 2024-A158
observations used192
oppositions10
arc length (days)6298
first opposition used2006
last opposition used2024
residual rms (arc-secs)0.73
perturbers coarse indicatorM-v
perturbers precise indicator003Ek
first observation date used2006-10-16.0
last observation date used2024-01-13.0
computer nameMPCLINUX
JD of orbit computation2456937.463730
perihelion JD uncertainty (days)1.6829E-04
argument of perihelion uncertainty (°)5.5036E-05
ascending node uncertainty (°)3.2764E-05
inclination uncertainty (°)1.9299E-05
eccentricity uncertainty 7.4167E-08
perihelion distance uncertainty (AU)1.9081E-07
Minimum Orbit Intersection Distances (in AU)
for orbit epoch: 2460200.5, reference: E2024-AF8
Mercury1.64343
Venus1.29066
Earth1.02306
Mars0.50043
Jupiter1.98692
Saturn6.55743
Uranus16.3782
Neptune26.871

Observations

200 total observations over interval: 2006 10 16.35551 – 2024 01 13.239027
These data are available for download (format description).

Date (UT) J2000 RA J2000 Dec Magn Location Ref
2006 10 16.35551 02 56 42.81 +19 11 51.6 21.3 V 691 – Steward Observatory, Kitt Peak-Spacewatch MPS 184266
2006 10 16.37292 02 56 42.07 +19 11 44.9 21.0 V 691 – Steward Observatory, Kitt Peak-Spacewatch MPS 184266
2006 10 16.39029 02 56 41.31 +19 11 37.9 21.2 V 691 – Steward Observatory, Kitt Peak-Spacewatch MPS 184266
2006 10 20.33232 02 53 51.27 +18 43 33.6 20.7 V 691 – Steward Observatory, Kitt Peak-Spacewatch MPS 184266
2006 10 20.34967 02 53 50.46 +18 43 25.4 20.8 V 691 – Steward Observatory, Kitt Peak-Spacewatch MPS 184266
2006 10 20.36701 02 53 49.61 +18 43 17.7 21.0 V 691 – Steward Observatory, Kitt Peak-Spacewatch MPS 184266
2006 11 01.31991 02 43 41.10 +17 04 45.5 20.6 V 691 – Steward Observatory, Kitt Peak-Spacewatch MPS 192349
2006 11 01.34067 02 43 39.92 +17 04 34.5 20.7 V 691 – Steward Observatory, Kitt Peak-Spacewatch MPS 192349
2006 11 01.35792 02 43 38.93 +17 04 25.2 20.6 V 691 – Steward Observatory, Kitt Peak-Spacewatch MPS 192349
2006 11 12.27909 02 33 35.35 +15 23 44.5 20.1 V G96 – Mt. Lemmon Survey MPS 192349
2006 11 12.28357 02 33 35.13 +15 23 41.6 20.2 V G96 – Mt. Lemmon Survey MPS 192349
2006 11 12.28800 02 33 34.84 +15 23 39.2 20.1 V G96 – Mt. Lemmon Survey MPS 192349
2006 11 12.29255 02 33 34.59 +15 23 36.8 20.3 V G96 – Mt. Lemmon Survey MPS 192349
2006 11 19.85533 02 27 00.71 +14 13 39.8 21.0 R 947 – Saint-Sulpice MPS 192349
2006 11 19.87050 02 26 59.98 +14 13 33.8   947 – Saint-Sulpice MPS 192349
2006 11 19.88561 02 26 59.11 +14 13 26.5   947 – Saint-Sulpice MPS 192349
2006 11 21.17248 02 25 56.82 +14 01 51.2 20.0 V G96 – Mt. Lemmon Survey MPS 192349
2006 11 21.18135 02 25 56.38 +14 01 46.8 19.9 V G96 – Mt. Lemmon Survey MPS 192349
2006 11 21.19030 02 25 55.95 +14 01 41.8 20.0 V G96 – Mt. Lemmon Survey MPS 192349
2006 11 21.19935 02 25 55.52 +14 01 37.2 20.4 V G96 – Mt. Lemmon Survey MPS 192349
2008 05 13.19556 14 59 40.92 -15 34 31.9 20.5 V 691 – Steward Observatory, Kitt Peak-Spacewatch MPS 278706
2008 05 13.21324 14 59 40.02 -15 34 22.5 20.1 V 691 – Steward Observatory, Kitt Peak-Spacewatch MPS 278706
2008 05 13.23094 14 59 39.05 -15 34 13.3 20.5 V 691 – Steward Observatory, Kitt Peak-Spacewatch MPS 278706
2008 05 13.27836 14 59 36.49 -15 33 47.6 19.9 V G96 – Mt. Lemmon Survey MPS 278706
2008 05 13.28417 14 59 36.16 -15 33 44.6 20.0 V G96 – Mt. Lemmon Survey MPS 278706
2008 05 13.28994 14 59 35.88 -15 33 41.6 20.0 V G96 – Mt. Lemmon Survey MPS 278706
2008 05 13.29567 14 59 35.55 -15 33 38.1 20.0 V G96 – Mt. Lemmon Survey MPS 278706
2008 06 02.23560 14 45 31.39 -12 56 55.2 20.3 V G96 – Mt. Lemmon Survey MPS 278706
2008 06 02.24059 14 45 31.17 -12 56 53.5 21.2 V G96 – Mt. Lemmon Survey MPS 278706
2008 06 02.24553 14 45 31.06 -12 56 51.5 21.0 V G96 – Mt. Lemmon Survey MPS 278706
2008 06 02.25046 14 45 30.92 -12 56 49.4 21.6 V G96 – Mt. Lemmon Survey MPS 278706
2010 10 03.537976 01 34 02.732 +17 14 53.85 21.03 r F51 – Pan-STARRS 1, Haleakala MPS 365633
2010 10 03.548974 01 34 02.208 +17 14 49.04 21.04 r F51 – Pan-STARRS 1, Haleakala MPS 365633
2010 10 11.32040 01 27 41.47 +16 17 09.7 20.7 V G96 – Mt. Lemmon Survey MPS 351295
2010 10 11.32683 01 27 41.14 +16 17 06.6 20.8 V G96 – Mt. Lemmon Survey MPS 351295
2010 10 11.33325 01 27 40.78 +16 17 03.4 20.8 V G96 – Mt. Lemmon Survey MPS 351295
2010 10 11.33963 01 27 40.50 +16 17 00.5 20.8 V G96 – Mt. Lemmon Survey MPS 351295
2010 10 12.483936 01 26 41.665 +16 07 46.07 21.18 w F51 – Pan-STARRS 1, Haleakala MPS 365633
2010 10 12.499458 01 26 40.852 +16 07 38.48 21.22 w F51 – Pan-STARRS 1, Haleakala MPS 365633
2010 10 12.514811 01 26 40.020 +16 07 30.87 21.19 w F51 – Pan-STARRS 1, Haleakala MPS 365633
2010 12 08.09779 00 56 38.14 +08 46 07.5 21.9 V G96 – Mt. Lemmon Survey MPS 359008
2010 12 08.10411 00 56 38.18 +08 46 06.0 21.8 V G96 – Mt. Lemmon Survey MPS 359008
2010 12 08.11042 00 56 38.22 +08 46 04.7 21.6 V G96 – Mt. Lemmon Survey MPS 359008
2010 12 08.11674 00 56 38.25 +08 46 03.2 22.0 V G96 – Mt. Lemmon Survey MPS 359008
2012 03 15.51701 13 20 20.241 -20 14 32.54 20.0 r F51 – Pan-STARRS 1, Haleakala MPS 416145
2012 03 15.53748 13 20 19.587 -20 14 24.91 19.9 i F51 – Pan-STARRS 1, Haleakala MPS 416145
2012 03 15.54805 13 20 19.242 -20 14 20.84 19.8 i F51 – Pan-STARRS 1, Haleakala MPS 416145
2012 04 16.39035 12 58 09.007 -14 52 35.39 19.4 w F51 – Pan-STARRS 1, Haleakala MPS 420842
2012 04 16.41676 12 58 07.891 -14 52 15.76 20.5 w F51 – Pan-STARRS 1, Haleakala MPS 420842
2012 04 16.43000 12 58 07.263 -14 52 06.33 19.5 w F51 – Pan-STARRS 1, Haleakala MPS 420842
2014 09 23.33020 00 27 16.71 +14 13 55.2 20.6 V G96 – Mt. Lemmon Survey MPS 536333
2014 09 23.33628 00 27 16.40 +14 13 52.2 21.0 V G96 – Mt. Lemmon Survey MPS 536333
2014 09 23.34235 00 27 16.11 +14 13 50.2 20.7 V G96 – Mt. Lemmon Survey MPS 536333
2014 09 23.34843 00 27 15.79 +14 13 47.4 20.5 V G96 – Mt. Lemmon Survey MPS 536333
2015 12 13.58379 10 31 15.878 -06 12 13.80 20.9 w F51 – Pan-STARRS 1, Haleakala MPS 662510
2015 12 13.59659 10 31 16.696 -06 12 23.95 20.8 w F51 – Pan-STARRS 1, Haleakala MPS 662510
2015 12 13.60936 10 31 17.509 -06 12 34.09 20.8 w F51 – Pan-STARRS 1, Haleakala MPS 662510
2015 12 13.62216 10 31 18.331 -06 12 44.30 21.0 w F51 – Pan-STARRS 1, Haleakala MPS 662510
2016 02 10.29740 10 50 56.02 -14 05 33.1 19.5 r G45 – Space Surveillance Telescope, Atom Site MPS 682150
2016 02 10.30370 10 50 55.75 -14 05 34.0 19.4 r G45 – Space Surveillance Telescope, Atom Site MPS 682150
2016 02 10.30828 10 50 55.60 -14 05 32.9 19.5 r G45 – Space Surveillance Telescope, Atom Site MPS 682150
2016 02 10.31253 10 50 55.43 -14 05 33.4 19.6 r G45 – Space Surveillance Telescope, Atom Site MPS 682150
2016 02 13.28362 10 49 19.42 -14 01 48.3 19.2 r G45 – Space Surveillance Telescope, Atom Site MPS 685948
2016 02 13.28854 10 49 19.28 -14 01 47.8 19.1 r G45 – Space Surveillance Telescope, Atom Site MPS 685948
2016 02 13.29666 10 49 18.85 -14 01 46.4 19.6 r G45 – Space Surveillance Telescope, Atom Site MPS 685948
2016 02 13.30117 10 49 18.70 -14 01 45.7 19.7 r G45 – Space Surveillance Telescope, Atom Site MPS 685948
2016 02 15.32743 10 48 07.05 -13 57 06.6 18.7 V 703 – Catalina Sky Survey MPS 685948
2016 02 15.33244 10 48 06.79 -13 57 06.8 19.1 V 703 – Catalina Sky Survey MPS 685948
2016 02 15.33745 10 48 06.58 -13 57 06.1 19.2 V 703 – Catalina Sky Survey MPS 685948
2016 02 15.34245 10 48 06.40 -13 57 06.1 19.6 V 703 – Catalina Sky Survey MPS 685948
2016 03 01.32600 10 37 45.57 -12 32 58.1 19.6 r G45 – Space Surveillance Telescope, Atom Site MPS 689782
2016 03 01.33062 10 37 45.35 -12 32 55.8 19.6 r G45 – Space Surveillance Telescope, Atom Site MPS 689782
2016 03 01.33530 10 37 45.18 -12 32 53.2 19.5 r G45 – Space Surveillance Telescope, Atom Site MPS 689782
2016 03 01.34038 10 37 44.92 -12 32 50.8 19.5 r G45 – Space Surveillance Telescope, Atom Site MPS 689782
2016 03 01.34547 10 37 44.69 -12 32 48.1 19.2 r G45 – Space Surveillance Telescope, Atom Site MPS 689782
2016 03 07.38692 10 33 30.145 -11 37 17.79 19.0 w F51 – Pan-STARRS 1, Haleakala MPS 692311
2016 03 07.39849 10 33 29.633 -11 37 10.90 19.1 w F51 – Pan-STARRS 1, Haleakala MPS 692311
2016 03 07.41007 10 33 29.124 -11 37 04.01 19.1 w F51 – Pan-STARRS 1, Haleakala MPS 692311
2016 03 07.42165 10 33 28.616 -11 36 56.98 19.1 w F51 – Pan-STARRS 1, Haleakala MPS 692311
2016 03 10.20106 10 31 39.42 -11 08 19.0 19.7 r G45 – Space Surveillance Telescope, Atom Site MPS 695636
2016 03 10.20112 10 31 39.42 -11 08 19.4 19.5 r G45 – Space Surveillance Telescope, Atom Site MPS 695636
2016 03 10.20665 10 31 39.20 -11 08 15.8 19.8 r G45 – Space Surveillance Telescope, Atom Site MPS 695636
2016 03 10.20672 10 31 39.18 -11 08 15.9 19.6 r G45 – Space Surveillance Telescope, Atom Site MPS 695636
2016 03 10.21168 10 31 38.95 -11 08 12.2 19.5 r G45 – Space Surveillance Telescope, Atom Site MPS 695636
2016 03 10.21265 10 31 38.95 -11 08 11.7 19.6 r G45 – Space Surveillance Telescope, Atom Site MPS 695636
2016 03 10.21765 10 31 38.73 -11 08 08.2 19.4 r G45 – Space Surveillance Telescope, Atom Site MPS 695636
2016 03 10.21853 10 31 38.66 -11 08 08.5 19.7 r G45 – Space Surveillance Telescope, Atom Site MPS 695636
